Wind_Speed
11 12 12 12 13 13 14 14 14 14 14 14 13 13 13 12 12 10 10 11 12 13 13 12 11 11 11 11 11 11 11 9 9 9 9 9 8 8 8 8 8 7 7 6 6 6 6 6 5 5 5 5 4 3 2 3 5 7 10 11 12 12 13 13 13 13 13 13 13 13 13 13 12 11 11 10 9 8 8 7 7 8 8 8 7
10 11 11 11 12 12 13 13 13 13 13 13 12 12 12 11 11 10 10 9 9 10 12 11 10 10 10 10 11 11 11 9 9 9 9 9 8 9 9 9 9 8 8 7 6 7 7 6 5 4 4 4 3 3 3 3 3 4 6 9 11 12 12 13 14 13 13 14 14 14 15 15 14 14 14 12 11 10 9 8 8 8 8 8 8
10 9 10 10 11 11 11 12 12 12 11 11 10 10 10 9 8 9 9 9 8 8 10 10 9 9 9 9 10 11 10 9 9 9 9 9 9 9 9 9 9 9 8 7 7 7 7 6 6 5 5 4 3 3 3 3 3 4 4 5 7 9 10 11 12 12 12 13 14 14 15 15 15 16 16 15 14 13 11 10 10 9 9 9 8
9 8 9 9 9 10 10 10 10 10 10 9 8 8 7 7 6 7 7 7 7 7 7 8 8 8 7 8 9 10 10 9 9 9 9 10 9 9 10 10 10 9 8 8 7 7 7 7 7 6 6 5 5 4 4 4 3 4 4 4 4 5 7 8 9 10 10 11 13 13 14 15 16 17 18 18 17 16 14 12 11 10 10 10 9
9 8 8 8 8 9 9 9 9 10 9 8 7 6 5 5 5 6 5 5 6 6 5 5 7 7 6 6 7 8 9 9 9 9 9 9 9 8 9 9 9 9 8 8 7 7 7 7 7 6 6 6 7 7 6 5 4 4 5 5 4 3 5 5 6 7 8 9 10 12 14 15 17 18 18 19 19 18 17 15 13 12 11 10 10
9 9 8 8 8 8 8 9 9 9 8 8 7 6 5 4 4 4 4 3 4 4 3 3 4 5 5 4 5 6 6 7 7 7 7 8 7 7 7 7 8 8 8 8 8 7 7 7 7 6 6 6 7 8 8 7 6 5 5 6 5 4 5 4 4 5 5 6 7 9 11 13 16 18 18 19 19 19 19 17 15 14 12 11 11
9 9 8 8 7 7 8 8 8 7 7 7 6 5 5 4 3 2 3 3 3 3 2 2 2 2 3 3 3 4 4 4 5 6 6 6 6 6 6 6 7 7 7 7 7 7 7 7 7 6 6 7 7 7 7 7 7 7 6 6 6 6 5 5 5 4 5 5 6 8 9 10 13 16 18 18 18 20 21 20 18 16 14 13 11
9 8 8 7 6 6 6 6 7 7 6 6 5 5 5 4 3 1 2 2 3 3 1 1 1 1 0 1 2 3 2 2 3 4 4 4 4 5 5 5 6 7 7 8 8 8 8 8 7 6 6 7 7 7 7 7 8 8 7 6 7 7 6 5 6 6 7 7 7 8 9 10 11 14 16 15 16 18 20 20 19 18 17 14 13
9 8 7 5 5 5 6 6 7 7 7 6 5 5 5 4 4 2 1 1 1 2 1 1 1 2 2 1 1 2 1 1 3 3 4 4 4 4 4 5 5 5 6 7 8 8 8 8 9 8 8 8 8 8 7 7 8 9 8 7 7 8 8 7 7 8 8 9 10 10 10 11 12 12 12 12 13 14 16 19 21 22 21 18 16
9 7 6 4 4 4 5 6 6 6 6 6 6 6 5 5 4 3 3 2 2 1 1 1 2 3 3 3 2 2 1 1 2 3 4 5 5 4 5 6 5 5 6 6 7 8 8 8 9 9 9 9 9 9 9 8 8 8 9 8 7 7 8 8 8 9 9 10 11 12 11 12 12 10 9 11 11 11 12 17 20 23 24 23 21
8 6 4 3 3 4 5 5 6 6 6 6 6 7 6 5 4 4 4 4 3 2 1 1 2 3 3 4 4 3 3 3 3 4 4 5 6 5 6 7 7 6 6 6 6 7 8 8 8 8 8 8 9 10 10 9 8 8 8 8 7 7 7 6 7 8 10 9 9 11 11 12 12 11 9 10 11 11 12 15 17 20 24 25 24
7 5 3 2 3 4 5 5 5 5 5 6 7 6 6 5 4 5 5 4 4 3 3 2 1 3 4 4 4 4 4 4 4 5 5 5 6 6 7 8 8 8 8 7 7 7 8 8 8 9 9 9 9 10 10 10 10 9 8 8 7 7 7 7 7 8 9 9 9 10 12 12 12 11 10 12 13 12 13 15 16 18 20 22 24
6 4 2 2 3 4 4 4 4 5 6 7 7 6 6 5 5 5 4 4 4 4 4 3 3 4 4 5 5 5 5 5 5 6 6 6 6 6 7 8 9 9 9 9 9 10 10 10 9 10 10 10 10 10 11 11 12 11 11 10 9 8 8 8 9 10 11 10 10 10 12 13 13 11 10 12 14 13 13 15 15 16 16 17 20
5 3 1 2 3 4 4 4 4 5 6 6 6 6 6 6 6 5 4 4 5 5 5 5 5 5 5 6 6 6 7 7 6 7 7 7 7 7 7 8 8 9 10 11 11 11 12 12 12 11 12 12 12 12 11 11 12 13 14 13 11 11 10 10 11 11 12 12 12 12 13 13 14 13 11 12 13 14 13 14 15 15 14 12 14
4 2 1 2 2 3 3 4 4 5 6 5 5 5 5 5 5 5 5 5 6 6 6 7 6 6 7 7 7 7 7 7 7 8 8 7 7 7 7 7 8 9 11 12 13 13 14 15 15 14 14 13 14 14 13 13 13 14 15 15 14 14 13 13 13 13 14 14 14 14 14 14 15 15 13 12 13 14 14 14 15 16 14 12 11
3 2 2 2 1 2 3 3 4 5 5 4 3 3 3 3 4 5 5 5 6 6 7 7 7 7 7 8 8 7 8 8 9 9 9 9 8 7 7 7 9 10 11 13 14 15 15 15 16 15 15 15 15 16 16 15 16 16 17 16 16 17 16 15 15 15 16 16 16 16 16 16 16 16 16 14 14 14 14 15 15 16 16 14 12
3 1 1 2 1 1 3 3 3 4 4 3 2 2 3 3 4 5 5 5 6 7 8 9 9 8 8 8 8 8 8 8 9 9 9 9 8 8 8 9 10 10 11 12 13 15 15 15 15 15 16 15 15 16 17 17 17 18 19 19 18 18 18 17 17 17 17 17 18 18 19 19 19 18 18 17 16 15 15 16 16 16 17 17 16
3 1 1 2 2 1 2 2 3 3 3 3 3 3 3 4 5 5 6 7 7 8 9 10 10 10 9 8 7 7 7 8 8 8 8 8 8 8 9 10 10 11 11 11 12 13 14 14 15 15 15 15 15 15 16 17 17 18 18 18 17 18 18 18 18 18 18 18 18 19 19 20 21 21 20 19 18 17 17 18 18 18 18 18 18
4 2 1 2 2 2 2 2 2 3 4 4 3 3 3 4 5 6 7 7 7 8 9 10 11 11 10 9 8 7 7 7 8 8 8 9 9 9 9 10 11 11 11 10 11 12 12 13 14 14 15 14 14 14 15 15 16 17 17 17 16 17 18 19 20 20 20 20 20 20 20 20 21 22 22 22 21 20 20 20 20 20 20 19 19
4 3 3 3 3 3 2 2 2 3 4 5 3 2 2 3 5 6 7 8 8 9 10 10 11 11 10 10 9 8 7 7 8 8 9 10 10 11 11 11 11 11 11 10 11 11 12 13 14 15 15 15 15 15 15 16 16 17 17 17 17 17 18 20 21 22 22 23 23 23 23 22 22 22 23 23 23 23 22 22 22 22 22 22 21
5 5 4 4 4 4 3 2 3 4 5 5 3 2 1 3 4 6 8 9 10 10 10 10 11 11 10 10 10 9 9 9 9 9 10 11 11 11 11 11 11 11 11 10 10 11 11 11 12 13 15 16 17 17 17 17 17 17 17 17 18 18 19 20 21 22 23 24 25 25 26 26 25 25 25 25 25 25 25 24 24 23 23 23 23
6 6 6 6 6 6 5 3 3 5 6 6 4 2 1 2 4 7 9 9 10 10 10 11 11 10 10 10 10 10 10 10 11 11 11 11 11 11 10 10 10 10 10 10 10 11 11 12 12 12 13 14 15 16 16 17 18 18 18 17 18 18 19 20 21 22 23 24 25 25 26 27 28 28 28 28 27 27 26 26 26 26 26 25 25
8 8 8 7 7 7 6 5 4 5 7 6 5 3 2 2 5 7 8 9 9 9 10 10 10 9 9 9 9 9 9 10 10 11 11 11 11 11 10 9 9 10 11 11 12 12 13 13 14 14 14 14 14 14 15 16 17 18 17 17 17 17 17 18 19 20 22 23 24 25 26 26 28 29 29 30 29 29 28 28 28 28 28 28 27
10 10 9 8 8 9 8 7 6 6 7 7 6 4 3 2 4 6 7 8 8 9 8 8 8 8 8 9 9 9 10 10 10 10 11 10 10 10 10 10 10 11 12 13 14 14 14 15 15 15 16 16 15 14 14 15 16 17 17 17 17 17 17 18 18 19 20 22 23 25 25 26 27 28 29 30 31 31 31 30 30 29 29 30 29
12 11 9 8 9 9 9 8 7 7 7 7 6 5 3 2 3 5 7 7 8 8 8 8 9 9 10 11 11 12 12 13 12 12 12 11 11 10 10 11 12 12 14 15 16 16 17 16 16 16 17 17 16 15 15 15 15 16 16 17 18 19 19 20 21 22 22 23 24 25 26 27 28 29 30 31 31 32 32 32 32 31 31 31 31
13 12 10 9 9 10 10 9 9 8 8 7 7 6 4 2 2 4 6 6 7 7 8 9 10 11 11 12 12 13 14 14 14 14 13 12 11 11 11 12 13 14 15 16 17 17 18 18 18 18 18 17 17 17 16 15 16 17 18 18 19 20 21 22 23 24 25 25 26 27 28 29 30 31 32 32 33 33 34 33 33 33 32 32 32
13 12 11 10 10 10 10 10 10 9 9 8 8 7 5 3 2 3 5 5 6 6 7 8 9 10 11 12 13 13 14 14 14 14 14 13 12 12 12 12 13 14 15 16 17 18 18 19 19 18 19 19 19 19 18 18 19 20 21 21 21 21 22 24 25 26 27 28 28 29 29 30 31 32 33 34 35 35 36 36 35 35 34 33 33
14 13 13 12 11 10 10 11 11 10 9 9 9 8 7 4 2 3 3 4 4 5 7 9 10 11 12 13 14 15 14 14 14 13 13 12 12 12 12 12 13 13 14 15 16 17 18 19 19 18 19 19 20 20 20 21 21 22 23 24 24 25 25 26 27 28 29 29 30 31 31 31 32 32 33 35 36 37 37 38 38 37 36 35 35
16 15 14 14 13 11 10 11 12 11 11 11 11 10 8 5 3 2 2 3 4 5 7 10 11 13 14 15 16 16 15 15 14 13 13 12 11 11 11 11 11 12 13 14 14 15 16 17 18 18 18 19 20 21 22 22 22 23 24 26 27 28 28 29 29 30 30 30 30 31 32 32 32 32 33 34 35 36 37 38 38 39 38 38 37
17 16 16 15 14 12 11 11 12 12 12 12 12 11 9 6 4 3 3 3 4 6 8 10 13 15 17 17 17 16 16 15 16 15 15 14 13 12 12 11 11 11 12 13 13 14 15 16 16 16 18 19 19 20 21 22 23 25 27 28 30 31 31 31 31 32 32 31 31 31 31 31 31 32 33 33 34 35 36 37 38 38 39 39 39
19 17 17 17 16 14 13 12 12 13 13 13 13 13 11 8 6 5 4 4 4 6 9 11 13 15 17 17 16 16 16 16 17 18 17 16 15 14 14 14 13 13 14 15 15 15 15 15 14 15 17 18 19 20 20 22 24 26 28 30 30 31 32 33 34 34 34 33 32 32 31 31 31 32 33 34 35 35 36 37 38 38 38 39 39
20 19 18 18 18 16 15 14 13 13 14 15 15 14 13 11 9 8 6 5 4 7 9 11 13 15 15 16 16 16 16 17 18 19 19 18 16 15 15 15 16 16 16 17 17 17 16 15 14 14 15 17 18 19 20 22 24 26 28 30 31 32 33 33 35 35 35 35 34 34 33 33 32 32 33 34 36 37 37 38 39 39 39 39 39
21 20 20 20 19 18 16 15 14 14 14 15 16 16 15 13 11 10 8 6 6 7 9 11 14 15 15 16 16 17 17 17 18 19 19 18 17 16 16 16 17 17 17 18 18 19 18 18 17 17 17 18 19 20 21 22 24 26 28 30 31 32 33 34 35 36 37 37 37 36 36 35 35 34 34 34 35 37 39 40 40 41 42 41 40
23 21 21 21 21 19 18 16 15 15 15 16 16 17 17 15 13 12 10 7 7 9 10 12 14 16 17 17 17 17 17 18 18 19 19 18 18 18 18 18 18 18 18 19 19 20 21 21 21 20 20 21 22 22 23 24 25 27 29 31 32 33 34 35 36 38 39 39 39 38 38 37 36 36 35 35 35 36 38 40 41 41 42 43 43
24 23 22 22 22 20 19 18 17 16 15 16 17 18 18 17 15 14 11 9 9 10 11 12 15 17 18 18 18 18 18 19 20 20 20 19 19 19 20 19 19 18 19 20 20 21 22 22 23 23 23 23 24 25 26 27 28 29 31 33 34 35 36 37 38 39 40 40 39 39 38 38 38 37 36 36 36 36 37 39 40 40 41 42 42
26 25 24 23 22 21 20 19 18 18 17 17 17 19 19 18 16 16 13 11 11 12 12 14 15 17 18 18 18 18 18 19 21 21 20 20 20 20 21 21 20 19 19 20 20 20 22 23 24 25 26 26 27 28 29 30 30 31 33 35 37 38 39 39 40 41 41 40 40 40 39 39 39 39 38 37 37 37 37 38 39 40 41 41 42
27 26 25 24 23 22 21 20 20 20 19 18 19 20 20 19 18 17 15 13 13 13 14 15 17 18 18 18 18 18 18 19 21 20 20 20 20 21 21 22 21 20 19 19 19 20 21 23 24 26 28 29 30 31 32 33 33 34 35 37 39 41 42 42 42 43 43 42 41 41 41 41 41 40 39 38 37 37 37 37 38 39 41 42 42
28 28 27 25 24 22 22 22 22 22 21 20 20 21 21 20 19 18 16 14 14 14 15 16 18 20 19 19 19 18 18 19 20 19 19 20 21 21 22 23 22 21 21 20 20 20 21 22 24 26 28 29 31 33 34 34 35 36 38 39 41 43 44 44 44 45 45 44 43 43 43 43 42 40 39 38 38 37 36 36 37 38 40 41 42
26 28 28 27 25 23 23 24 24 24 23 21 21 22 22 20 19 19 17 15 15 15 16 17 19 21 21 20 20 19 18 19 19 20 22 22 22 22 22 23 23 22 22 22 21 22 22 23 24 26 28 29 31 33 34 35 36 38 40 41 42 44 45 45 46 47 47 46 44 44 44 44 43 42 40 40 39 39 38 37 37 38 40 42 45
15 20 24 26 26 26 25 25 26 26 24 22 22 23 22 20 20 20 18 16 15 16 17 18 19 21 21 21 21 20 19 20 21 24 25 23 21 22 22 21 22 22 23 23 23 23 23 24 26 27 29 31 32 33 34 36 38 40 42 43 44 45 46 47 48 49 48 47 45 43 43 43 43 41 40 40 40 39 38 38 38 39 41 43 45
10 10 13 16 20 23 25 26 27 26 24 22 22 23 23 21 21 21 19 17 17 17 17 18 20 21 22 22 21 21 21 21 22 23 23 21 20 21 22 22 23 24 24 24 23 24 25 26 28 29 30 32 34 35 36 38 40 42 44 45 45 46 47 48 48 49 48 46 44 41 40 41 41 40 40 40 41 41 40 39 39 40 40 41 43
11 10 9 9 11 15 19 23 25 26 24 22 23 25 24 23 23 22 20 19 18 18 18 19 20 21 22 21 21 21 21 20 20 21 22 22 21 21 22 23 24 25 25 24 24 25 26 27 29 30 31 33 34 36 38 40 42 44 45 46 47 48 48 48 47 46 46 44 42 40 39 40 40 40 39 40 41 41 41 41 42 41 41 41 42
11 11 11 10 11 13 15 19 22 24 24 23 24 26 26 25 25 23 22 21 21 20 19 20 21 21 22 21 20 21 20 19 20 22 24 23 22 21 23 23 24 25 25 25 25 26 27 29 30 31 32 34 35 37 39 41 43 45 46 47 48 49 48 47 45 44 43 43 42 40 39 39 40 39 38 39 41 41 41 42 43 43 42 42 42
11 10 9 10 12 13 15 17 19 22 24 25 26 27 28 27 27 25 24 23 22 21 21 21 22 22 22 21 20 20 21 21 21 22 23 23 22 22 23 24 25 26 26 26 26 27 28 30 31 32 33 35 37 39 41 42 44 45 47 48 49 49 48 46 45 44 43 43 42 40 39 39 39 39 38 39 40 41 41 42 42 43 43 43 43
13 10 9 10 12 13 14 15 17 19 23 26 28 28 29 29 28 27 27 25 24 23 22 23 23 23 23 22 20 20 22 23 23 23 23 23 23 23 24 26 27 27 27 27 28 29 30 31 32 33 34 36 38 40 42 43 45 46 47 49 49 49 48 46 45 44 44 42 41 40 38 38 38 38 38 39 40 41 42 42 43 43 44 44 44
15 13 12 12 13 13 14 15 16 18 22 26 29 30 31 31 30 30 29 28 27 25 25 25 25 24 24 23 21 21 23 24 25 25 24 24 24 25 26 27 28 29 29 29 29 30 31 32 33 34 35 37 39 41 42 44 45 46 47 48 49 48 47 45 44 43 42 41 40 38 36 36 37 38 38 40 41 42 43 43 44 44 44 45 45
19 17 16 15 15 14 14 15 16 18 20 25 29 32 32 32 32 33 32 30 29 27 27 27 27 26 26 24 22 23 25 26 27 26 25 24 25 26 28 29 31 31 31 31 31 32 32 33 34 35 37 38 40 41 43 44 45 46 47 48 49 48 46 44 42 41 40 39 37 36 35 36 38 39 40 41 42 43 44 44 44 45 45 45 46
23 21 20 19 17 16 17 17 17 17 19 24 29 31 33 34 34 34 33 32 31 29 28 28 28 28 27 25 24 25 26 28 29 29 26 24 26 28 30 32 33 33 33 33 33 32 32 33 34 36 38 39 41 42 43 44 45 46 47 48 47 46 45 43 41 39 38 37 36 36 37 39 41 41 42 43 43 44 44 45 45 45 45 45 45
26 26 25 23 21 20 20 19 19 18 19 22 27 31 33 34 35 35 34 34 32 31 30 30 30 30 28 27 26 27 28 30 31 31 27 26 28 30 32 33 34 35 35 34 33 32 32 34 35 37 38 40 41 42 43 43 45 46 47 47 46 45 43 41 38 37 36 36 37 38 40 41 42 42 42 42 43 44 45 45 45 45 45 45 44
28 30 30 29 27 26 24 22 21 20 21 23 27 30 33 35 36 36 36 36 34 33 32 31 31 32 30 29 28 30 31 32 33 32 29 27 29 32 33 34 35 36 36 35 33 33 34 35 36 37 39 40 42 42 42 43 44 46 46 45 44 43 41 39 36 35 36 38 39 40 41 41 41 42 42 42 43 44 45 45 45 45 44 43 41
33 34 35 34 33 30 28 27 25 24 24 25 27 29 32 35 37 37 37 37 36 34 33 33 33 33 33 31 31 32 34 34 33 32 30 30 31 34 34 34 35 37 37 35 34 34 35 36 37 38 40 41 42 42 42 43 44 45 44 43 43 41 40 37 36 35 37 39 41 41 41 41 41 42 42 43 42 43 44 44 44 44 43 41 39
Wind_Direction
125 119 112 106 100 96 93 91 88 85 83 81 79 80 81 82 82 79 74 74 76 78 78 71 63 58 54 53 53 54 52 46 46 51 56 56 52 48 44 43 47 48 45 41 38 34 30 36 43 41 41 38 29 17 337 288 268 260 254 251 250 250 251 254 256 258 262 263 264 265 266 267 269 270 269 268 266 266 269 270 271 272 274 277 283
124 117 111 106 101 98 95 93 91 87 82 78 75 74 75 77 79 81 80 76 73 76 80 78 72 67 61 56 54 55 53 48 44 44 50 51 45 43 41 42 45 43 42 39 34 35 31 27 34 40 47 49 34 31 24 347 314 290 272 259 253 252 254 257 259 260 261 262 263 264 265 265 267 269 270 270 268 265 264 266 268 269 270 271 275
124 117 111 106 103 100 98 97 96 92 86 80 75 71 71 73 76 83 86 84 78 74 79 81 76 71 66 59 56 56 55 51 46 41 44 46 41 36 35 37 42 41 40 39 35 34 31 25 25 25 36 40 20 23 23 352 336 331 313 284 259 251 252 257 262 264 263 264 265 265 265 265 265 265 265 266 267 266 264 263 265 268 270 271 273
123 118 113 108 104 101 98 96 95 91 86 80 73 69 71 75 74 71 74 78 81 76 77 84 84 76 66 60 57 57 56 54 50 45 43 44 39 33 31 31 34 35 35 35 33 33 32 30 25 20 24 20 8 13 15 358 342 333 328 317 288 260 254 254 259 265 268 270 271 270 268 266 264 263 261 260 261 263 264 262 263 267 271 275 277
126 124 119 113 106 99 94 89 85 82 79 73 66 60 61 71 75 72 73 79 81 75 70 78 86 84 73 61 56 56 57 56 56 54 51 52 44 35 31 29 30 31 31 28 25 26 29 30 26 21 20 16 14 15 10 4 349 337 330 320 314 297 278 267 265 269 274 278 280 278 273 267 264 262 260 258 257 259 262 263 262 263 268 274 279
131 129 125 117 107 96 88 82 76 72 68 63 54 45 40 52 75 87 91 93 92 85 71 61 68 85 88 73 60 58 56 55 59 60 60 61 54 39 32 30 30 29 30 26 17 16 21 23 24 19 11 12 18 16 12 7 351 337 330 322 322 315 303 300 293 292 294 292 289 283 276 269 263 260 258 256 254 255 256 258 259 260 260 264 270
134 130 124 114 104 92 82 72 64 57 53 46 35 25 13 17 45 97 119 125 123 118 97 57 29 64 95 94 77 66 56 47 50 54 55 60 59 44 28 27 28 27 29 26 14 10 10 9 16 17 2 2 12 11 9 8 352 338 336 331 327 320 310 307 305 306 302 295 291 285 280 277 272 265 259 255 253 251 251 253 258 261 261 262 266
138 131 122 111 98 82 68 56 46 36 31 26 15 2 350 350 357 33 131 138 140 142 142 109 316 298 53 104 92 77 63 34 28 34 32 34 47 39 21 19 22 22 23 23 14 8 4 360 2 4 355 351 354 355 358 1 354 344 341 338 336 328 314 305 305 305 296 290 287 285 287 293 295 284 271 262 255 252 252 256 261 263 263 263 264
141 132 122 108 87 64 49 38 29 20 12 4 354 347 341 332 327 334 20 87 119 141 168 205 256 273 290 331 52 68 67 7 1 4 355 349 9 18 0 356 6 13 14 14 11 5 2 358 354 353 351 345 340 340 344 351 351 347 342 343 346 336 323 318 315 306 298 297 297 299 304 304 303 300 291 278 269 263 261 261 262 263 263 262 259
142 135 123 104 71 46 35 27 20 10 1 353 347 346 341 332 332 345 4 19 23 47 171 219 252 271 292 321 344 359 332 323 343 342 332 323 332 347 337 332 342 355 1 1 359 354 353 353 351 349 348 343 335 332 334 338 341 343 343 346 349 337 329 330 322 311 304 302 306 312 314 304 295 299 305 297 289 285 277 270 268 266 264 260 256
145 137 125 96 58 38 29 25 17 8 1 357 357 355 349 344 351 4 10 7 2 2 351 256 255 277 297 317 326 324 314 319 329 319 311 308 314 325 323 322 329 337 344 343 340 338 336 338 341 342 342 341 335 329 327 328 329 333 336 340 342 333 331 336 329 319 312 310 317 317 309 300 297 303 307 299 294 294 290 286 284 278 266 257 254
148 139 123 79 47 36 31 27 20 18 18 17 15 12 9 8 12 17 13 5 3 5 358 337 314 313 315 319 318 313 311 317 315 305 302 301 304 313 314 316 322 326 330 328 324 323 322 323 325 327 328 330 330 327 324 323 322 322 321 322 327 327 330 335 332 325 321 324 330 322 310 305 304 306 304 296 293 293 293 294 297 293 277 258 250
152 141 111 54 35 33 33 32 32 35 35 33 31 32 35 38 40 36 24 17 19 16 13 10 3 342 326 323 324 322 320 320 312 304 302 301 304 310 311 313 316 318 320 319 319 318 317 316 315 315 316 318 321 321 321 322 321 318 312 308 311 315 319 323 323 322 323 329 333 326 318 314 309 305 301 298 297 295 294 296 300 302 293 266 248
156 140 93 33 23 29 32 38 49 48 43 41 42 47 52 55 56 52 41 36 32 25 24 19 9 356 343 339 341 338 331 326 320 314 311 311 315 318 316 314 313 313 315 316 318 320 317 314 312 313 313 313 314 314 316 317 316 313 311 309 306 304 304 307 311 314 317 320 323 324 321 318 316 314 312 308 304 300 298 301 303 306 304 284 258
157 137 85 34 22 28 34 46 57 52 45 46 50 55 59 58 59 54 44 37 30 26 25 18 6 358 350 346 347 343 336 331 327 325 325 327 329 328 323 317 313 313 317 318 320 320 317 315 316 318 318 316 314 311 310 308 305 302 301 302 302 299 297 297 300 304 307 309 313 315 315 315 314 315 317 317 310 304 302 302 302 303 302 294 274
163 135 79 43 32 37 37 45 52 45 40 43 47 46 41 41 46 44 37 31 25 24 22 13 2 352 345 339 337 335 332 330 328 328 329 330 331 330 322 313 312 316 319 319 318 318 317 317 318 320 320 318 315 311 308 305 302 298 295 294 295 296 298 296 295 296 298 300 303 304 305 306 306 307 310 313 312 309 308 304 300 298 295 291 281
184 144 67 32 28 30 32 37 40 31 25 19 1 349 351 7 23 30 31 30 29 26 22 16 9 1 352 342 333 330 330 329 329 329 329 326 324 323 319 316 318 322 320 317 316 317 317 318 320 320 319 318 315 311 308 306 305 302 299 296 291 290 294 296 295 294 294 294 295 296 296 297 298 299 300 303 305 306 306 305 302 298 293 289 284
211 194 3 7 3 356 14 22 19 12 3 348 326 317 331 357 13 21 23 25 24 22 19 17 15 14 11 4 354 344 339 336 336 337 337 335 331 327 324 324 327 331 330 325 323 323 323 323 324 323 322 321 318 313 310 308 308 307 305 302 294 285 284 287 290 291 292 291 290 289 290 290 291 292 293 295 297 297 298 298 299 298 295 291 287
223 231 286 330 333 324 340 355 352 346 340 326 311 307 335 3 13 14 16 16 17 18 17 14 15 19 20 19 16 5 354 346 344 346 344 340 336 333 331 332 335 340 341 336 333 334 333 332 331 329 329 329 326 322 316 311 308 309 309 307 300 290 283 282 283 284 286 287 287 286 285 284 284 285 286 287 289 290 291 292 292 293 293 292 289
233 243 268 300 309 306 311 322 327 321 319 313 298 291 338 7 13 12 14 16 18 20 17 14 14 18 18 17 14 6 357 349 346 346 343 337 333 331 332 336 340 343 345 342 341 341 340 338 337 336 336 336 335 332 328 322 316 312 310 307 304 298 291 287 286 285 285 286 286 287 285 284 282 281 281 281 281 283 284 285 286 287 287 287 287
246 255 270 288 297 297 293 292 300 300 304 301 280 268 326 6 14 15 20 21 20 18 15 12 12 11 9 6 2 355 347 342 339 339 338 335 332 331 333 337 341 343 345 343 340 338 337 336 335 334 333 334 334 334 333 331 328 324 319 314 310 306 303 299 295 293 291 290 289 289 289 287 285 283 281 280 278 278 278 279 280 281 281 281 282
254 262 273 284 291 290 282 275 276 284 293 288 264 251 290 1 18 22 25 21 14 11 9 6 4 1 359 357 352 347 341 337 336 336 336 335 332 330 332 336 339 340 341 342 340 338 335 333 330 327 327 326 326 328 330 331 332 332 330 327 324 320 315 310 305 300 296 294 292 290 289 287 286 284 282 280 278 276 275 274 275 276 277 277 277
255 262 271 282 288 287 277 266 262 273 284 277 257 251 275 356 22 28 26 17 10 8 6 3 360 357 358 358 355 349 343 338 337 336 336 337 333 329 327 328 332 334 336 339 341 341 338 335 331 327 325 323 322 322 324 328 330 331 332 333 333 331 327 321 315 310 305 301 298 294 291 288 286 283 281 279 277 276 274 272 271 271 272 272 273
252 258 269 280 288 289 281 268 260 269 276 266 252 251 274 343 21 28 21 12 9 9 10 10 10 9 8 9 6 1 355 348 343 340 338 338 336 330 324 322 324 327 330 333 336 337 335 334 331 328 326 325 324 324 324 326 327 327 330 333 334 334 331 329 325 320 315 310 306 302 298 294 289 285 281 278 275 273 272 271 270 269 269 270 270
250 256 264 274 283 288 285 274 263 268 270 259 248 247 267 319 14 23 16 11 11 12 14 18 23 21 16 13 11 7 4 359 354 349 343 339 335 329 324 320 320 322 325 328 330 331 330 329 327 326 325 325 325 326 326 325 324 324 326 329 330 331 331 330 328 325 321 316 311 306 301 297 292 287 283 279 275 272 270 269 269 268 268 267 267
247 253 258 264 273 284 287 275 265 268 269 257 245 245 256 283 352 14 16 14 13 13 14 20 24 22 15 9 7 6 4 2 360 356 351 344 337 331 326 322 322 323 325 328 330 329 327 326 324 323 323 323 325 327 326 324 322 321 321 323 324 326 327 327 326 324 320 317 312 307 302 297 293 289 285 281 277 274 272 270 268 267 266 265 265
247 250 255 259 264 276 284 278 269 269 269 257 246 244 251 263 322 5 17 13 8 9 12 17 19 16 9 1 357 356 356 355 355 354 353 349 342 335 330 327 326 326 328 329 329 328 326 324 322 320 321 324 327 328 327 326 323 321 319 320 322 323 324 324 323 320 317 314 310 305 301 297 293 290 287 284 281 277 274 272 269 267 265 264 263
247 248 251 254 259 267 277 280 274 269 267 258 249 247 249 255 301 344 6 0 352 358 5 7 7 3 359 351 345 344 345 346 346 345 344 344 342 337 333 329 326 325 325 325 325 324 324 322 319 317 318 322 325 327 327 326 323 321 320 321 322 323 323 322 319 317 314 311 307 304 300 297 293 291 289 287 284 281 278 275 272 269 267 264 263
245 245 247 251 256 261 268 276 276 271 265 257 252 251 250 252 275 298 331 333 328 345 357 358 357 354 349 344 340 338 338 340 342 340 335 332 331 332 331 330 327 323 320 320 320 321 320 319 317 316 317 321 323 325 325 324 323 322 321 322 323 323 322 320 317 314 312 309 305 302 300 297 295 292 289 287 286 284 281 278 275 272 269 267 264
246 244 244 248 253 256 258 266 273 273 265 256 254 255 252 251 256 263 277 298 315 342 350 351 351 349 345 342 339 336 335 337 338 339 337 333 328 326 326 327 327 326 324 323 323 323 322 322 320 318 318 320 321 323 323 322 322 322 322 323 322 321 320 317 315 313 310 307 303 301 299 298 296 293 290 287 285 284 282 280 278 275 273 270 268
248 246 245 247 251 252 254 259 267 272 266 256 254 256 254 251 250 252 259 279 314 338 342 345 347 345 344 344 342 339 337 338 338 337 336 334 331 327 323 324 325 326 327 328 328 329 329 327 324 320 320 321 321 322 323 322 322 322 321 321 320 318 317 316 314 312 309 306 303 301 299 297 296 294 292 289 286 284 282 281 279 277 275 273 271
248 248 247 248 249 250 252 257 262 268 266 256 253 255 255 252 250 250 256 273 311 329 331 337 341 342 345 345 343 341 341 342 341 338 334 333 333 331 325 323 323 325 327 328 328 330 330 328 324 321 320 320 320 320 321 320 319 319 317 316 316 315 314 313 312 310 308 306 304 302 300 298 296 294 292 290 288 286 283 281 279 278 276 274 273
248 247 247 248 249 248 250 255 259 263 263 256 251 253 254 253 251 250 256 274 302 314 319 329 336 339 342 342 341 341 342 343 341 337 334 333 334 334 330 327 325 325 327 327 328 328 327 325 325 324 323 320 318 318 318 317 316 316 315 314 314 313 312 311 310 309 307 306 305 303 301 300 298 296 294 291 290 289 286 283 280 278 277 275 274
247 245 245 247 248 248 249 253 257 260 261 255 250 251 253 253 251 251 256 272 291 300 310 323 331 335 335 335 337 339 341 343 341 337 335 334 334 334 333 332 328 326 325 325 326 325 324 324 325 326 325 321 319 319 318 318 318 317 315 314 312 312 311 311 310 309 308 307 306 305 303 302 300 298 296 294 291 289 288 286 283 280 278 277 276
246 245 245 245 247 247 247 250 255 258 258 253 248 248 251 253 251 251 255 268 283 293 304 316 325 329 329 329 332 336 340 343 341 338 334 333 334 334 334 334 331 328 325 323 324 323 322 323 325 325 324 322 321 320 319 319 319 318 317 315 313 313 312 312 311 311 310 309 308 307 306 304 302 300 298 296 294 291 288 287 285 282 279 277 275
248 247 245 245 246 246 246 249 254 256 254 250 245 245 248 251 251 250 253 264 277 287 299 308 317 323 325 326 328 331 336 339 340 338 335 333 333 331 330 332 332 330 326 323 323 322 321 322 324 324 324 323 322 321 320 320 320 319 317 316 315 314 313 313 313 312 311 310 309 309 308 305 304 302 301 299 296 293 289 286 284 281 278 274 272
249 249 247 245 245 245 245 247 251 253 251 246 242 243 246 249 249 249 251 260 272 284 294 302 311 318 322 323 324 329 334 335 337 337 335 333 333 330 327 327 328 327 325 322 321 321 320 320 321 321 321 321 321 320 321 321 321 320 319 317 316 314 314 314 314 313 311 311 311 310 308 307 305 304 302 300 297 293 289 286 282 279 276 273 271
249 249 249 247 246 244 243 245 248 251 250 245 242 242 244 247 248 248 250 257 269 280 290 298 306 313 318 319 321 329 333 332 334 337 337 335 331 327 324 321 321 322 322 321 321 320 319 318 317 316 316 317 318 318 320 322 322 321 319 317 316 314 313 314 314 312 312 312 312 311 310 308 307 305 303 301 297 293 289 285 280 277 274 271 270
253 253 252 249 247 244 243 245 248 250 249 246 242 242 243 245 246 247 250 256 266 276 286 294 302 309 313 314 319 327 329 327 328 333 336 336 331 326 320 316 316 318 320 320 320 319 318 316 314 312 313 314 315 317 319 321 321 320 318 316 315 314 314 314 314 312 312 313 313 312 311 309 307 305 303 301 297 294 291 286 280 276 273 271 272
269 262 258 254 250 246 243 244 246 249 250 247 244 244 244 244 244 245 249 254 263 272 281 290 298 304 306 309 315 322 324 322 322 324 327 329 329 325 319 314 314 315 317 318 319 318 317 314 312 311 312 313 314 317 320 320 320 318 316 315 315 315 315 315 314 313 313 314 314 313 311 309 307 306 304 302 299 297 294 289 284 279 276 276 276
306 290 273 262 255 250 247 244 245 249 252 250 246 245 245 243 242 243 246 251 258 267 277 286 293 298 301 305 312 317 320 321 324 325 324 326 328 325 317 312 311 313 316 318 317 316 314 312 311 312 313 314 316 319 320 319 318 317 315 314 315 315 316 316 315 314 314 315 315 314 312 310 308 306 304 301 299 297 295 292 288 285 282 280 279
313 307 297 285 271 260 253 248 247 250 253 251 248 247 246 244 242 242 246 249 255 263 272 281 288 292 296 301 309 314 318 322 324 323 323 324 326 323 316 310 308 310 314 317 316 314 312 311 310 312 313 315 317 318 318 317 316 315 314 315 316 316 316 316 316 315 316 316 316 315 312 309 306 304 302 300 298 297 296 294 291 288 286 283 280
316 307 301 292 281 272 263 256 253 253 254 251 248 246 246 246 244 244 246 249 253 261 269 277 283 288 292 298 306 312 316 318 317 317 319 322 324 322 316 310 307 309 313 315 314 312 310 310 310 312 314 316 316 316 316 316 315 315 315 316 316 316 316 317 317 317 317 316 315 314 311 308 305 305 304 302 300 300 299 297 295 293 291 288 285
310 310 304 288 277 272 268 264 260 256 253 249 247 247 247 247 246 245 247 251 254 259 266 273 278 283 287 294 302 309 312 313 314 315 317 321 323 321 315 310 307 309 312 314 313 311 310 310 311 313 315 315 315 315 315 315 315 315 316 316 316 317 317 318 319 318 317 315 314 313 312 310 308 308 308 306 305 304 303 301 299 298 296 294 291
294 302 303 289 278 273 270 267 264 259 252 248 247 247 247 248 248 247 248 251 254 257 263 269 274 278 282 288 296 304 307 309 311 313 315 318 320 319 314 311 310 311 313 314 313 311 311 311 312 314 314 314 314 315 315 315 315 316 317 317 317 318 318 319 319 317 316 315 314 314 314 312 311 311 311 309 308 307 305 303 301 300 298 296 294
281 287 290 287 284 281 275 268 262 258 252 248 247 246 246 248 248 248 249 251 253 256 260 265 269 272 277 282 289 296 300 304 306 308 311 315 318 316 313 313 314 316 316 313 311 311 311 312 313 313 313 313 314 315 315 315 316 317 318 318 318 319 319 319 318 317 316 315 315 316 315 313 312 313 312 310 309 308 306 304 303 301 299 296 294
276 277 277 279 282 283 280 272 263 259 254 249 247 246 246 247 248 249 250 251 253 255 258 262 266 268 272 277 283 289 294 298 300 302 307 313 315 313 313 315 318 319 317 313 311 311 311 312 311 311 312 313 314 315 315 316 317 318 319 319 319 320 320 319 319 318 317 316 317 318 317 315 314 315 314 313 311 309 307 306 304 302 300 298 295
270 270 270 273 275 275 276 273 267 263 258 253 250 249 248 248 249 251 252 253 253 255 257 260 263 266 269 274 278 283 288 292 294 296 301 307 310 310 311 314 318 319 315 311 309 310 311 310 310 310 312 314 314 315 315 316 318 319 319 320 320 321 321 320 319 318 317 317 319 320 319 317 317 317 315 313 312 310 308 307 306 304 302 300 298
263 265 267 267 267 267 268 269 270 269 263 257 254 252 251 250 250 252 254 254 254 255 256 258 261 264 267 271 275 279 283 287 289 291 297 304 306 307 309 312 316 317 314 311 309 309 309 309 310 312 314 314 314 314 315 317 319 320 320 321 322 322 322 321 320 319 318 320 322 322 320 318 317 316 315 314 312 311 310 309 309 307 306 304 302
256 257 257 257 259 261 262 264 268 269 266 262 258 255 252 252 252 253 255 255 255 255 256 258 260 262 264 268 273 277 280 282 284 288 295 300 301 302 305 309 313 314 313 311 309 308 309 309 311 313 313 313 313 313 316 319 320 320 321 322 323 323 323 322 321 321 321 322 323 322 320 318 317 316 316 315 314 313 313 312 311 310 308 307 305
260 259 256 252 251 253 258 261 264 265 266 266 264 260 256 253 253 255 257 258 258 257 258 259 259 260 262 265 270 274 277 279 281 286 293 296 297 298 301 306 310 312 313 311 308 307 308 309 311 312 312 312 312 314 317 319 319 320 322 324 324 324 324 323 323 323 323 324 323 321 319 319 318 318 317 316 316 315 315 314 313 312 310 309 309
Height
5935 5936 5936 5936 5936 5936 5935 5935 5935 5934 5935 5935 5935 5935 5934 5934 5934 5933 5933 5933 5933 5933 5933 5933 5932 5932 5931 5931 5930 5930 5929 5929 5929 5928 5927 5927 5926 5926 5926 5926 5926 5925 5925 5924 5924 5923 5923 5923 5923 5923 5923 5923 5922 5922 5922 5922 5922 5922 5922 5922 5922 5922 5922 5922 5922 5922 5922 5922 5922 5922 5922 5922 5922 5921 5921 5921 5921 5921 5921 5921 5921 5921 5921 5921 5920
5936 5937 5937 5937 5937 5936 5936 5936 5935 5935 5935 5935 5935 5935 5935 5935 5934 5934 5934 5934 5934 5934 5933 5933 5933 5933 5932 5931 5931 5930 5930 5930 5929 5929 5928 5927 5927 5926 5926 5926 5926 5926 5925 5924 5923 5923 5923 5923 5923 5923 5923 5922 5922 5922 5922 5922 5922 5922 5921 5920 5920 5920 5921 5921 5921 5921 5921 5921 5921 5921 5921 5921 5921 5920 5920 5920 5920 5920 5920 5921 5921 5920 5920 5920 5920
5937 5937 5938 5938 5938 5937 5937 5937 5936 5936 5936 5936 5936 5936 5935 5935 5934 5934 5934 5934 5934 5934 5934 5934 5934 5933 5932 5932 5931 5931 5931 5930 5930 5929 5928 5928 5927 5927 5926 5926 5926 5926 5926 5925 5924 5924 5924 5924 5924 5923 5922 5922 5922 5921 5921 5922 5922 5921 5920 5920 5920 5919 5919 5919 5919 5920 5920 5920 5920 5920 5920 5920 5919 5919 5919 5919 5919 5919 5920 5920 5920 5920 5920 5919 5919
5938 5938 5938 5938 5938 5938 5938 5938 5937 5937 5937 5937 5937 5936 5936 5936 5935 5935 5935 5935 5935 5934 5934 5934 5934 5934 5933 5932 5932 5931 5931 5931 5930 5930 5929 5928 5928 5927 5927 5926 5926 5926 5925 5925 5924 5924 5924 5924 5924 5923 5923 5922 5922 5921 5921 5921 5921 5920 5920 5919 5919 5919 5918 5918 5918 5918 5919 5919 5919 5919 5919 5918 5918 5917 5917 5917 5917 5918 5919 5919 5920 5920 5919 5919 5919
5938 5939 5939 5939 5939 5938 5938 5938 5938 5937 5937 5937 5937 5937 5937 5937 5937 5936 5936 5936 5935 5934 5934 5934 5934 5934 5933 5933 5932 5932 5932 5931 5930 5930 5929 5928 5928 5927 5927 5926 5926 5926 5925 5925 5924 5924 5924 5924 5923 5923 5923 5923 5922 5921 5921 5921 5920 5920 5919 5919 5918 5918 5918 5918 5918 5918 5918 5918 5918 5918 5917 5917 5916 5915 5915 5915 5916 5917 5918 5918 5918 5919 5919 5919 5919
5939 5939 5939 5939 5939 5939 5939 5938 5938 5938 5938 5938 5938 5937 5937 5937 5937 5937 5936 5936 5935 5935 5934 5934 5934 5934 5933 5933 5933 5933 5932 5932 5931 5930 5929 5928 5927 5927 5927 5926 5926 5926 5925 5925 5924 5924 5923 5923 5923 5922 5923 5923 5922 5921 5921 5921 5920 5919 5919 5919 5918 5918 5918 5918 5918 5918 5918 5917 5917 5916 5915 5914 5913 5913 5913 5913 5914 5915 5916 5916 5916 5917 5917 5918 5918
5939 5939 5939 5939 5939 5939 5939 5938 5938 5938 5938 5938 5938 5937 5937 5936 5937 5937 5936 5936 5936 5935 5934 5934 5934 5933 5933 5933 5933 5933 5933 5932 5931 5931 5930 5928 5928 5927 5927 5926 5926 5926 5925 5925 5924 5924 5923 5923 5923 5923 5922 5922 5921 5921 5921 5921 5920 5919 5919 5919 5918 5918 5918 5919 5918 5918 5917 5916 5915 5914 5913 5912 5911 5911 5911 5912 5912 5913 5913 5914 5915 5915 5916 5916 5917
5939 5939 5939 5939 5939 5939 5939 5938 5938 5938 5938 5938 5937 5937 5936 5936 5936 5936 5936 5936 5935 5935 5934 5934 5933 5933 5932 5933 5933 5933 5933 5932 5931 5931 5930 5929 5928 5927 5927 5927 5926 5926 5925 5925 5924 5923 5923 5923 5922 5922 5922 5921 5921 5921 5921 5920 5919 5918 5918 5919 5918 5918 5918 5918 5918 5918 5917 5915 5913 5913 5912 5912 5911 5910 5910 5911 5911 5911 5912 5914 5914 5914 5914 5915 5916
5939 5939 5939 5939 5939 5939 5939 5938 5938 5938 5937 5937 5937 5936 5936 5935 5935 5935 5935 5935 5935 5935 5934 5934 5933 5933 5932 5932 5933 5933 5932 5932 5931 5931 5930 5930 5928 5927 5927 5927 5926 5926 5925 5925 5924 5923 5923 5922 5922 5922 5921 5921 5920 5920 5920 5920 5919 5918 5917 5917 5917 5918 5918 5918 5917 5917 5915 5914 5913 5913 5914 5913 5912 5910 5909 5909 5909 5910 5912 5912 5912 5912 5913 5914 5914
5940 5940 5939 5939 5939 5939 5938 5938 5937 5937 5937 5936 5936 5935 5935 5935 5935 5935 5935 5934 5934 5934 5934 5934 5933 5932 5932 5932 5932 5933 5932 5931 5931 5931 5930 5929 5928 5927 5927 5927 5926 5926 5925 5924 5924 5923 5922 5922 5921 5921 5921 5920 5920 5919 5919 5919 5919 5918 5917 5917 5917 5917 5917 5917 5917 5916 5914 5914 5914 5914 5914 5913 5910 5910 5910 5910 5909 5910 5911 5911 5910 5911 5911 5911 5911
5940 5940 5940 5940 5939 5939 5938 5938 5937 5937 5937 5936 5935 5935 5935 5935 5934 5934 5934 5934 5934 5934 5934 5933 5933 5932 5931 5931 5932 5932 5931 5931 5931 5930 5930 5929 5928 5927 5927 5926 5926 5925 5925 5924 5923 5923 5922 5921 5921 5920 5920 5920 5919 5918 5918 5918 5918 5917 5917 5917 5917 5917 5917 5916 5916 5915 5914 5914 5914 5914 5913 5911 5910 5911 5912 5910 5909 5910 5910 5909 5909 5909 5908 5908 5909
5940 5940 5940 5940 5939 5939 5938 5937 5937 5937 5936 5936 5935 5935 5935 5935 5934 5934 5934 5934 5934 5934 5934 5933 5932 5932 5931 5931 5931 5931 5930 5930 5930 5929 5929 5929 5928 5927 5926 5926 5925 5925 5924 5923 5923 5922 5921 5921 5920 5919 5919 5919 5919 5918 5917 5917 5917 5916 5916 5916 5916 5916 5916 5915 5914 5913 5913 5913 5914 5913 5911 5910 5910 5911 5911 5909 5909 5910 5909 5908 5907 5907 5906 5905 5906
5940 5940 5940 5940 5939 5939 5938 5937 5937 5937 5937 5936 5936 5935 5935 5935 5934 5934 5934 5934 5934 5934 5933 5933 5932 5932 5931 5931 5931 5930 5930 5929 5929 5929 5929 5928 5928 5927 5926 5926 5925 5924 5923 5923 5922 5921 5921 5920 5920 5919 5918 5918 5918 5917 5917 5916 5916 5915 5915 5915 5915 5914 5914 5914 5914 5913 5912 5912 5913 5912 5910 5909 5909 5910 5911 5909 5909 5910 5908 5906 5906 5905 5904 5903 5903
5939 5939 5939 5939 5939 5938 5938 5937 5937 5937 5937 5936 5936 5936 5936 5935 5935 5935 5934 5934 5934 5934 5934 5933 5932 5932 5931 5931 5930 5930 5929 5929 5929 5928 5928 5928 5927 5927 5926 5925 5924 5924 5923 5922 5922 5921 5920 5920 5919 5919 5918 5917 5917 5916 5916 5916 5915 5914 5914 5913 5913 5913 5913 5913 5912 5912 5911 5911 5911 5911 5910 5908 5908 5909 5910 5909 5909 5909 5907 5906 5905 5904 5904 5903 5902
5939 5939 5939 5939 5939 5938 5938 5937 5937 5937 5937 5937 5937 5937 5936 5936 5936 5936 5935 5935 5935 5934 5934 5933 5933 5932 5932 5931 5930 5930 5929 5928 5928 5927 5927 5927 5927 5926 5926 5925 5924 5923 5922 5922 5921 5921 5920 5919 5918 5918 5917 5917 5916 5916 5915 5915 5914 5914 5913 5912 5912 5912 5912 5912 5911 5911 5910 5910 5910 5909 5908 5908 5907 5907 5908 5909 5908 5908 5907 5905 5905 5904 5903 5903 5902
5938 5938 5939 5939 5938 5938 5937 5937 5937 5937 5937 5937 5937 5937 5937 5937 5937 5937 5936 5936 5935 5935 5934 5934 5933 5932 5931 5930 5930 5929 5929 5928 5927 5927 5926 5926 5926 5925 5925 5924 5924 5923 5922 5921 5920 5920 5919 5919 5918 5917 5916 5916 5916 5915 5915 5914 5913 5913 5912 5912 5911 5911 5910 5910 5910 5910 5909 5908 5908 5907 5907 5906 5905 5905 5906 5907 5907 5906 5905 5904 5904 5904 5903 5902 5902
5937 5938 5938 5938 5937 5937 5937 5937 5937 5937 5938 5938 5937 5938 5938 5938 5937 5937 5936 5936 5936 5935 5934 5933 5932 5931 5930 5930 5929 5928 5928 5927 5927 5926 5925 5925 5925 5924 5924 5923 5923 5922 5922 5921 5920 5919 5919 5918 5917 5916 5915 5915 5914 5914 5913 5913 5912 5912 5911 5911 5910 5910 5909 5909 5909 5908 5908 5907 5906 5906 5905 5905 5904 5904 5904 5904 5904 5904 5903 5903 5903 5902 5902 5902 5901
5937 5937 5937 5937 5937 5936 5936 5937 5937 5937 5938 5938 5938 5938 5938 5938 5937 5937 5936 5936 5935 5935 5934 5933 5932 5931 5930 5929 5928 5928 5927 5926 5926 5925 5924 5924 5924 5923 5923 5923 5922 5922 5921 5921 5920 5919 5918 5917 5916 5915 5915 5914 5914 5913 5912 5911 5911 5910 5909 5909 5909 5908 5908 5908 5907 5906 5906 5905 5905 5904 5904 5903 5902 5902 5902 5902 5902 5902 5902 5901 5901 5900 5900 5900 5900
5936 5936 5936 5936 5936 5936 5936 5936 5937 5937 5937 5937 5938 5938 5937 5937 5937 5937 5936 5935 5935 5934 5933 5933 5932 5930 5930 5929 5928 5927 5926 5926 5925 5924 5923 5923 5923 5922 5922 5922 5922 5921 5921 5920 5919 5918 5917 5916 5915 5915 5914 5914 5913 5912 5911 5910 5909 5909 5908 5907 5907 5906 5906 5906 5905 5905 5904 5903 5903 5902 5901 5901 5900 5900 5899 5899 5899 5899 5899 5899 5899 5898 5898 5898 5898
5935 5935 5935 5935 5935 5935 5935 5936 5936 5936 5937 5937 5937 5937 5937 5937 5936 5936 5935 5935 5934 5933 5933 5932 5931 5930 5929 5928 5927 5927 5926 5925 5925 5924 5923 5922 5922 5921 5921 5921 5921 5921 5920 5920 5919 5918 5917 5916 5915 5914 5913 5912 5912 5911 5910 5909 5908 5907 5906 5906 5905 5904 5904 5904 5903 5903 5903 5902 5901 5901 5900 5899 5898 5897 5897 5897 5897 5897 5897 5896 5896 5896 5896 5895 5895
5934 5934 5934 5934 5934 5934 5934 5935 5935 5936 5936 5936 5937 5937 5936 5936 5936 5935 5934 5934 5933 5933 5932 5931 5930 5929 5929 5928 5927 5926 5925 5925 5924 5924 5923 5922 5921 5921 5920 5920 5920 5919 5919 5919 5918 5918 5917 5916 5915 5914 5912 5911 5910 5910 5909 5908 5907 5906 5905 5905 5904 5903 5903 5902 5902 5901 5901 5900 5899 5899 5898 5897 5896 5895 5895 5894 5894 5894 5894 5894 5893 5893 5893 5893 5892
5934 5934 5934 5934 5933 5933 5934 5934 5935 5935 5935 5936 5936 5936 5936 5935 5935 5934 5934 5933 5933 5932 5931 5931 5930 5929 5928 5928 5927 5926 5925 5924 5923 5923 5922 5921 5921 5920 5919 5919 5918 5918 5918 5918 5917 5917 5916 5915 5914 5913 5912 5911 5910 5909 5909 5908 5907 5906 5905 5904 5903 5902 5901 5900 5900 5899 5898 5898 5897 5896 5895 5894 5894 5893 5893 5892 5892 5891 5891 5891 5891 5890 5890 5890 5889
5933 5933 5933 5933 5933 5933 5933 5933 5934 5934 5935 5935 5935 5935 5935 5934 5934 5933 5933 5933 5932 5932 5931 5930 5929 5929 5928 5927 5926 5925 5924 5923 5922 5921 5921 5920 5920 5919 5918 5918 5918 5917 5917 5917 5916 5916 5915 5914 5913 5912 5911 5911 5910 5909 5908 5907 5906 5905 5904 5903 5902 5901 5900 5899 5898 5897 5896 5895 5894 5893 5892 5891 5890 5890 5889 5889 5888 5888 5888 5887 5887 5887 5887 5886 5886
5931 5931 5932 5932 5932 5933 5933 5933 5933 5933 5934 5934 5934 5934 5933 5933 5933 5932 5932 5932 5932 5931 5931 5930 5929 5928 5928 5927 5926 5925 5924 5923 5921 5921 5920 5919 5919 5918 5917 5917 5917 5916 5916 5915 5914 5914 5913 5912 5912 5911 5910 5909 5909 5908 5907 5906 5905 5904 5903 5902 5900 5899 5898 5897 5896 5895 5894 5893 5892 5890 5889 5888 5887 5886 5885 5885 5884 5884 5884 5884 5883 5883 5883 5883 5883
5930 5930 5931 5931 5932 5932 5932 5932 5932 5933 5933 5933 5933 5932 5932 5932 5932 5931 5932 5931 5931 5930 5930 5929 5928 5928 5927 5926 5925 5924 5923 5922 5921 5920 5919 5918 5917 5917 5916 5916 5915 5915 5914 5913 5913 5912 5911 5911 5910 5909 5908 5907 5907 5906 5906 5905 5904 5903 5902 5901 5899 5898 5897 5895 5894 5893 5892 5891 5889 5888 5886 5885 5883 5882 5881 5880 5880 5880 5879 5879 5879 5879 5879 5879 5878
5929 5929 5930 5930 5931 5931 5931 5931 5932 5932 5932 5932 5932 5931 5931 5931 5930 5930 5930 5930 5930 5929 5929 5928 5928 5927 5926 5926 5925 5924 5923 5922 5921 5920 5919 5917 5916 5916 5915 5915 5914 5913 5913 5912 5911 5910 5909 5909 5908 5907 5906 5905 5905 5904 5904 5903 5902 5901 5900 5899 5898 5897 5895 5894 5893 5891 5890 5888 5887 5885 5884 5882 5880 5878 5877 5876 5876 5875 5875 5875 5875 5874 5874 5874 5874
5927 5928 5928 5929 5929 5930 5930 5930 5931 5931 5931 5931 5931 5931 5930 5930 5929 5929 5929 5929 5929 5928 5928 5928 5927 5927 5926 5925 5924 5924 5923 5922 5921 5919 5918 5917 5916 5915 5914 5914 5913 5912 5911 5910 5909 5908 5907 5906 5905 5904 5904 5903 5902 5902 5901 5900 5900 5899 5898 5897 5896 5894 5893 5892 5890 5889 5887 5886 5884 5882 5881 5879 5877 5875 5874 5873 5872 5871 5871 5871 5871 5870 5870 5870 5870
5926 5926 5927 5927 5928 5928 5929 5929 5930 5930 5930 5930 5930 5930 5929 5929 5928 5927 5927 5928 5927 5927 5927 5927 5926 5926 5925 5924 5923 5923 5922 5921 5920 5919 5918 5916 5915 5914 5913 5913 5912 5911 5910 5909 5908 5907 5906 5904 5903 5902 5901 5900 5899 5899 5898 5897 5896 5896 5894 5893 5892 5891 5890 5889 5887 5886 5884 5883 5881 5879 5877 5875 5874 5872 5871 5869 5868 5868 5867 5867 5867 5866 5866 5866 5865
5923 5924 5925 5925 5926 5927 5927 5928 5928 5929 5929 5929 5929 5929 5928 5928 5927 5926 5926 5926 5926 5926 5926 5925 5925 5924 5923 5922 5922 5921 5920 5920 5919 5918 5917 5915 5914 5913 5912 5911 5910 5910 5909 5907 5906 5905 5904 5903 5902 5901 5899 5898 5897 5896 5895 5894 5893 5892 5891 5890 5889 5887 5886 5885 5884 5882 5880 5879 5877 5875 5873 5872 5870 5869 5867 5866 5864 5863 5863 5862 5862 5862 5862 5862 5861
5921 5922 5923 5923 5924 5925 5926 5926 5927 5927 5928 5928 5928 5928 5927 5927 5926 5925 5925 5925 5925 5925 5925 5924 5923 5922 5921 5921 5920 5919 5918 5917 5916 5915 5914 5914 5913 5912 5911 5910 5909 5908 5907 5905 5904 5903 5902 5901 5900 5899 5898 5896 5895 5894 5893 5892 5891 5889 5888 5887 5885 5884 5882 5881 5879 5878 5876 5875 5873 5871 5869 5868 5866 5865 5863 5862 5860 5859 5858 5857 5856 5856 5856 5856 5856
5919 5920 5921 5921 5922 5923 5924 5924 5925 5925 5926 5926 5926 5926 5926 5926 5925 5924 5924 5924 5924 5924 5923 5923 5922 5921 5920 5919 5918 5917 5916 5915 5914 5913 5913 5912 5911 5910 5909 5908 5907 5906 5905 5903 5902 5901 5900 5899 5899 5898 5896 5894 5893 5892 5891 5889 5888 5886 5885 5884 5883 5881 5879 5877 5875 5873 5872 5870 5869 5867 5865 5864 5862 5860 5859 5857 5856 5854 5853 5852 5851 5850 5850 5850 5850
5917 5918 5918 5919 5920 5921 5922 5923 5923 5924 5924 5925 5925 5925 5925 5924 5924 5923 5923 5923 5923 5923 5922 5922 5921 5920 5919 5918 5917 5916 5915 5914 5913 5912 5911 5910 5909 5908 5907 5906 5905 5904 5903 5901 5900 5899 5899 5898 5897 5896 5895 5893 5891 5890 5889 5888 5886 5885 5883 5881 5879 5877 5875 5873 5871 5869 5867 5866 5864 5863 5861 5859 5858 5856 5854 5853 5851 5850 5848 5847 5845 5844 5844 5844 5844
5914 5915 5916 5917 5918 5919 5920 5921 5921 5921 5922 5923 5923 5923 5923 5923 5923 5922 5922 5922 5922 5922 5921 5920 5920 5919 5918 5917 5916 5915 5914 5913 5912 5911 5909 5908 5908 5907 5906 5905 5904 5903 5901 5899 5898 5897 5896 5896 5895 5894 5892 5891 5889 5888 5887 5886 5884 5882 5880 5878 5876 5874 5872 5870 5868 5865 5863 5861 5860 5858 5856 5855 5853 5851 5850 5848 5847 5845 5843 5842 5841 5839 5838 5837 5837
5911 5912 5913 5914 5915 5916 5918 5919 5919 5919 5920 5920 5921 5921 5921 5921 5921 5921 5921 5921 5921 5921 5920 5919 5918 5917 5917 5916 5915 5914 5913 5912 5911 5909 5908 5906 5906 5905 5904 5903 5902 5900 5899 5897 5896 5895 5893 5893 5892 5891 5890 5888 5886 5885 5883 5882 5881 5879 5877 5875 5873 5871 5868 5866 5864 5861 5859 5857 5855 5853 5852 5850 5848 5846 5845 5843 5842 5840 5838 5837 5835 5834 5833 5832 5831
5908 5910 5911 5912 5913 5914 5915 5916 5917 5917 5918 5918 5919 5919 5919 5919 5919 5919 5919 5920 5920 5919 5919 5918 5917 5916 5915 5915 5914 5913 5912 5911 5910 5908 5907 5905 5904 5902 5901 5900 5899 5898 5897 5895 5894 5892 5891 5889 5888 5887 5886 5885 5883 5881 5880 5878 5877 5875 5873 5870 5868 5866 5863 5861 5859 5857 5855 5853 5851 5849 5847 5845 5843 5841 5840 5838 5836 5835 5833 5831 5830 5829 5828 5827 5826
5906 5907 5908 5909 5910 5912 5913 5914 5915 5915 5915 5916 5916 5916 5917 5917 5918 5918 5918 5918 5918 5918 5917 5916 5916 5915 5914 5914 5913 5912 5911 5910 5908 5907 5906 5904 5903 5901 5900 5898 5897 5896 5894 5893 5892 5890 5889 5887 5885 5884 5882 5881 5879 5877 5876 5874 5873 5871 5869 5866 5863 5860 5858 5856 5855 5852 5850 5848 5846 5844 5842 5840 5838 5836 5834 5833 5831 5829 5827 5826 5824 5823 5822 5821 5820
5903 5904 5905 5907 5908 5910 5911 5912 5912 5913 5913 5913 5914 5914 5914 5915 5916 5916 5916 5916 5916 5916 5915 5915 5914 5913 5913 5912 5912 5911 5910 5908 5907 5905 5904 5902 5901 5900 5898 5897 5895 5894 5892 5891 5890 5889 5887 5885 5883 5881 5879 5878 5876 5874 5872 5870 5868 5867 5864 5862 5858 5855 5853 5851 5849 5847 5844 5842 5841 5839 5836 5834 5832 5830 5828 5826 5825 5823 5822 5820 5818 5817 5815 5814 5813
5900 5901 5903 5904 5906 5907 5908 5909 5909 5910 5910 5911 5911 5911 5911 5912 5913 5914 5914 5914 5914 5914 5913 5913 5912 5911 5911 5910 5910 5909 5908 5906 5905 5903 5902 5901 5899 5898 5897 5895 5893 5892 5890 5889 5887 5886 5885 5884 5882 5879 5877 5875 5873 5870 5868 5866 5864 5862 5859 5857 5854 5851 5848 5846 5844 5841 5838 5836 5835 5833 5831 5828 5826 5824 5822 5820 5818 5816 5815 5814 5812 5811 5809 5808 5807
5898 5898 5900 5901 5903 5904 5905 5906 5906 5907 5907 5908 5908 5908 5909 5910 5911 5911 5912 5912 5912 5912 5911 5910 5910 5909 5908 5908 5908 5907 5906 5904 5902 5901 5900 5899 5898 5896 5894 5893 5891 5890 5888 5887 5885 5883 5882 5881 5880 5877 5875 5873 5870 5868 5865 5863 5860 5858 5855 5852 5850 5847 5844 5842 5839 5835 5833 5831 5829 5828 5825 5822 5820 5818 5816 5813 5811 5810 5808 5807 5806 5805 5803 5802 5802
5895 5896 5897 5898 5899 5901 5902 5902 5903 5903 5904 5905 5906 5906 5906 5907 5908 5908 5909 5909 5909 5909 5909 5908 5907 5906 5906 5906 5906 5905 5903 5902 5900 5899 5898 5897 5895 5894 5892 5891 5889 5888 5886 5884 5882 5881 5880 5878 5876 5874 5872 5870 5867 5864 5862 5859 5856 5854 5851 5848 5845 5842 5839 5836 5833 5830 5827 5825 5824 5822 5819 5816 5814 5812 5810 5807 5805 5803 5802 5801 5799 5798 5797 5796 5796
5893 5893 5894 5894 5896 5897 5898 5899 5899 5900 5901 5903 5903 5903 5904 5904 5905 5905 5906 5907 5907 5907 5906 5905 5904 5904 5904 5904 5903 5902 5901 5899 5898 5896 5895 5894 5893 5891 5890 5888 5887 5885 5883 5881 5880 5878 5876 5875 5873 5871 5869 5866 5863 5860 5858 5855 5852 5850 5847 5844 5842 5838 5835 5832 5828 5825 5822 5820 5818 5816 5814 5811 5808 5806 5804 5801 5798 5796 5795 5794 5793 5792 5791 5790 5789
5891 5891 5891 5892 5893 5893 5894 5895 5896 5897 5898 5900 5901 5900 5901 5901 5902 5902 5903 5904 5904 5904 5903 5902 5902 5901 5901 5901 5901 5899 5898 5897 5895 5894 5892 5891 5891 5889 5888 5886 5884 5882 5880 5879 5877 5875 5873 5871 5869 5867 5865 5862 5859 5856 5854 5851 5849 5846 5843 5840 5837 5834 5831 5828 5824 5820 5817 5815 5813 5811 5809 5805 5802 5800 5798 5795 5792 5790 5789 5788 5786 5785 5784 5783 5782
5889 5889 5889 5890 5890 5890 5891 5892 5893 5894 5895 5897 5897 5897 5898 5898 5899 5899 5900 5900 5901 5901 5900 5899 5898 5898 5898 5898 5897 5896 5895 5894 5893 5891 5890 5889 5889 5887 5885 5883 5881 5880 5878 5876 5874 5872 5870 5868 5866 5863 5861 5858 5856 5853 5850 5848 5845 5842 5839 5836 5833 5830 5827 5824 5820 5816 5813 5810 5808 5806 5804 5800 5797 5795 5792 5789 5786 5785 5783 5781 5779 5778 5777 5775 5774
5887 5887 5887 5887 5887 5888 5888 5889 5890 5891 5892 5893 5894 5894 5895 5895 5896 5896 5897 5897 5897 5897 5897 5896 5895 5895 5895 5894 5894 5893 5892 5891 5890 5889 5888 5887 5886 5884 5883 5881 5879 5877 5875 5873 5871 5869 5867 5865 5862 5859 5857 5854 5852 5849 5847 5844 5841 5838 5835 5832 5829 5825 5822 5819 5816 5812 5809 5806 5804 5801 5799 5795 5791 5789 5787 5784 5781 5779 5777 5775 5773 5771 5770 5768 5767
5885 5885 5886 5885 5885 5885 5885 5886 5887 5888 5889 5890 5890 5891 5891 5892 5892 5893 5893 5894 5894 5894 5893 5892 5892 5892 5892 5891 5890 5890 5889 5888 5887 5886 5885 5884 5882 5881 5879 5878 5875 5874 5872 5869 5867 5865 5863 5860 5858 5856 5854 5851 5848 5845 5843 5840 5837 5834 5831 5828 5824 5821 5818 5815 5812 5808 5804 5802 5799 5797 5794 5790 5786 5784 5782 5779 5776 5774 5772 5770 5767 5765 5763 5761 5759
5883 5883 5883 5883 5883 5883 5883 5883 5883 5884 5885 5886 5886 5887 5887 5888 5889 5889 5890 5890 5890 5890 5890 5889 5889 5889 5888 5888 5887 5886 5885 5885 5884 5883 5882 5880 5879 5878 5876 5874 5872 5869 5867 5865 5863 5861 5858 5856 5854 5852 5850 5847 5844 5842 5839 5836 5833 5830 5827 5823 5820 5817 5813 5810 5807 5803 5800 5797 5795 5793 5790 5786 5783 5780 5778 5774 5772 5769 5766 5764 5762 5759 5757 5754 5752
5880 5880 5881 5880 5880 5880 5880 5880 5880 5881 5882 5882 5882 5883 5884 5885 5885 5885 5886 5887 5887 5887 5886 5886 5885 5885 5885 5884 5884 5883 5882 5881 5880 5879 5878 5877 5876 5874 5872 5870 5867 5865 5863 5861 5858 5856 5854 5853 5851 5849 5846 5843 5841 5838 5835 5832 5829 5826 5822 5819 5816 5812 5809 5806 5802 5799 5796 5793 5790 5789 5786 5782 5779 5776 5773 5769 5766 5764 5761 5758 5755 5753 5750 5748 5745
5876 5877 5877 5877 5877 5877 5877 5877 5877 5878 5878 5878 5878 5879 5880 5880 5880 5881 5882 5883 5883 5883 5883 5882 5882 5882 5881 5881 5880 5879 5878 5877 5876 5875 5875 5874 5872 5870 5868 5866 5863 5861 5859 5857 5855 5853 5851 5849 5847 5845 5842 5839 5837 5834 5831 5828 5825 5822 5818 5815 5812 5808 5805 5801 5798 5794 5791 5789 5787 5784 5781 5778 5774 5771 5768 5765 5762 5758 5755 5752 5749 5746 5743 5740 5738
5872 5873 5873 5874 5874 5874 5874 5874 5874 5874 5874 5874 5874 5875 5875 5875 5876 5876 5877 5878 5879 5879 5879 5879 5878 5878 5878 5877 5876 5875 5874 5873 5872 5870 5870 5870 5868 5866 5864 5862 5860 5858 5856 5853 5851 5849 5847 5845 5843 5841 5838 5835 5833 5830 5827 5824 5821 5818 5815 5811 5808 5804 5800 5797 5794 5791 5787 5785 5783 5780 5776 5773 5770 5767 5764 5761 5757 5753 5750 5747 5743 5740 5737 5734 5731
5868 5868 5868 5869 5869 5870 5870 5870 5871 5871 5870 5870 5870 5870 5870 5870 5871 5872 5872 5873 5874 5874 5875 5875 5875 5874 5874 5873 5872 5871 5870 5869 5868 5866 5866 5866 5864 5862 5860 5858 5856 5855 5853 5850 5848 5846 5844 5841 5839 5836 5834 5832 5829 5826 5823 5820 5817 5814 5811 5807 5803 5800 5796 5793 5790 5787 5784 5781 5778 5776 5772 5769 5766 5763 5760 5757 5752 5748 5744 5741 5737 5734 5731 5728 5725
5863 5863 5863 5863 5864 5865 5866 5866 5867 5867 5867 5866 5866 5865 5866 5866 5866 5867 5867 5868 5869 5870 5871 5870 5870 5870 5870 5869 5868 5867 5866 5865 5864 5863 5863 5862 5860 5858 5856 5854 5853 5851 5849 5847 5844 5842 5839 5837 5835 5832 5830 5828 5825 5822 5819 5816 5813 5810 5807 5803 5799 5796 5792 5789 5786 5783 5780 5777 5775 5772 5768 5765 5761 5758 5755 5753 5749 5743 5739 5735 5732 5728 5725 5722 5720